Location: Newark
(47.5833°N, 8.1500°E)
Time: 08:23:24
(UTC+00:00)

Vanguard 1 - Pass Details

Date: 03 November 2020
Orbit: 650 x 3833 km, 34.2° (Epoch: 29 November)

Event Time Altitude Azimuth Distance (km) Brightness Sun altitude
Rises 09:00:02 0° 206° (SSW) 6,279 14.6 20.7°
Reaches altitude 10° 09:04:22 10° 197° (SSW) 5,672 14.6 21.1°
Maximum altitude 09:19:58 33° 141° (SE) 4,975 15.7 22.4°
Drops below altitude 10° 09:38:48 10° 88° (E) 6,879 14.7 23.9°
Sets 09:44:43 0° 81° (E) 7,738 14.8 24.3°
